[[{"header":{"parameterUnit":"m.s-1","parameterCategory":2,"la1":30.2992,"la2":30.254,"lo1":-89.0895,"lo2":-89.0443,"dy":0.0025,"dx":0.0025,"nx":19,"ny":19,"refTime":"2026-05-10T21:00:00:Z","depth":"0","parameterNumber":2,"parameterNumberName":"U-component_of_CURRENTS"},"data":[0,0,0,0.1611,0.1612,0.1704,0.1705,0.1843,0.1844,0,0,0,0,0,0,0,0,0,0,0,0.158,0.158,0.1611,0.1612,0.1704,0.1705,0.1843,0.1844,0,0,0,0,0,0,0,0,0,0,0,0.158,0.158,0.158,0.1612,0.1704,0.1705,0.1843,0.1774,0,0,0,0,0,0,0,0,0,0,0.1685,0.1655,0.158,0.158,0.1613,0.1704,0.1705,0.1771,0.1778,0.1799,0,0.1798,0,0.1813,0.1852,0.1852,0,0,0,0.1637,0.1649,0.1657,0.158,0.1613,0.1704,0.167,0.1775,0.1784,0.1809,0.18,0.1805,0.1815,0.1852,0.1853,0.1939,0.1939,0,0,0.1632,0.1619,0.1651,0.1662,0.1617,0.1667,0.1672,0.178,0.179,0.18,0.1808,0.1818,0.1853,0.1854,0.1939,0.1939,0,0,0,0.1601,0.1615,0.1622,0.1656,0.1665,0.1669,0.1675,0.1786,0.1783,0.181,0.1819,0.1854,0.1855,0.1939,0.1939,0.1911,0,0,0,0.1599,0.1595,0.1619,0.1616,0.1662,0.1726,0.1679,0.1776,0.1788,0.1819,0.1854,0.1856,0.1939,0.1939,0.1911,0.1897,0,0,0,0.1579,0.1594,0.1594,0.1614,0.1641,0.1725,0.173,0.178,0.1793,0.1852,0.1856,0.1939,0.1939,0.1912,0.1898,0.1939,0,0,0,0.1579,0.1574,0.1594,0.1605,0.164,0.1692,0.173,0.1782,0.1829,0.1854,0.1939,0.1939,0.1912,0.1898,0.1938,0.1984,0.1989,0,0,0.1569,0.1573,0.1581,0.16,0.1633,0.1682,0.1734,0.1803,0.1842,0.1909,0.1911,0.1911,0.1898,0.1939,0.2,0.2004,0,0,0,0.1577,0.1576,0.1595,0.1619,0.1662,0.1714,0.1777,0.1808,0.1872,0.1865,0.1925,0.1918,0.1944,0.1972,0.1975,0.2062,0.1941,0.194,0.194,0.1525,0.1559,0.1577,0.1622,0.1664,0.1737,0.1783,0.1837,0.187,0.1889,0.1904,0.1928,0.1956,0.1959,0.2048,0.1918,0.1918,0.1918,0.1917,0.1488,0.149,0.1553,0.1579,0.1643,0.1691,0.1792,0.1822,0.1891,0.1897,0.1925,0.1952,0.1961,0.2055,0.1916,0.1916,0.1916,0.1916,0.1917,0.1431,0.1438,0.1462,0.1515,0.1573,0.1664,0.1738,0.1807,0.187,0.1891,0.1965,0.1966,0.2042,0.1919,0.1919,0.1919,0.1919,0.1919,0.192,0.1347,0.1378,0.1392,0.1463,0.15,0.1585,0.1715,0.1784,0.1898,0.1945,0.1946,0.2068,0.1929,0.1923,0.1921,0.1921,0.1921,0.1921,0.192,0.1254,0.1293,0.131,0.1343,0.1442,0.1512,0.1647,0.1825,0.1921,0.1984,0.2134,0.1994,0.2017,0.2015,0.2013,0.2034,0.2034,0.2034,0.2034,0.1188,0.1215,0.123,0.1271,0.1351,0.1469,0.1588,0.1782,0.2059,0.2194,0.2229,0.2239,0.223,0.2266,0.2259,0.2261,0.2346,0.2346,0.2346,0.1119,0.1152,0.1138,0.1213,0.1299,0.1421,0.1507,0.1686,0.2141,0.2366,0.2342,0.2329,0.2348,0.2328,0.2386,0.2369,0.2372,0,0]},{"header":{"parameterUnit":"m.s-1","parameterCategory":2,"la1":30.2992,"la2":30.254,"lo1":-89.0895,"lo2":-89.0443,"dy":0.0025,"dx":0.0025,"nx":19,"ny":19,"refTime":"2026-05-10T21:00:00:Z","depth":"0","parameterNumber":3,"parameterNumberName":"V-component_of_CURRENTS"},"data":[0,0,0,-0.1306,-0.1307,-0.1418,-0.1418,-0.1573,-0.1574,0,0,0,0,0,0,0,0,0,0,0,-0.1263,-0.1263,-0.1305,-0.1307,-0.1417,-0.1418,-0.1573,-0.1574,0,0,0,0,0,0,0,0,0,0,0,-0.1263,-0.1263,-0.1263,-0.1307,-0.1417,-0.1418,-0.1573,-0.1493,0,0,0,0,0,0,0,0,0,0,-0.1387,-0.1372,-0.1263,-0.1263,-0.1308,-0.1417,-0.1418,-0.1489,-0.1498,-0.1518,0,-0.1513,0,-0.1537,-0.1582,-0.1583,0,0,0,-0.1335,-0.1365,-0.1352,-0.1263,-0.1308,-0.1417,-0.1376,-0.1494,-0.1504,-0.153,-0.1515,-0.1521,-0.154,-0.1583,-0.1584,-0.1621,-0.162,0,0,-0.1329,-0.1332,-0.1345,-0.1357,-0.1308,-0.1372,-0.1379,-0.15,-0.1523,-0.1516,-0.1525,-0.1542,-0.1584,-0.1585,-0.1621,-0.1621,0,0,0,-0.1293,-0.1328,-0.1314,-0.1351,-0.1364,-0.1374,-0.1382,-0.1519,-0.1501,-0.1527,-0.1544,-0.1585,-0.1586,-0.1622,-0.1621,-0.1548,0,0,0,-0.129,-0.1304,-0.1311,-0.1321,-0.1361,-0.1451,-0.1399,-0.1493,-0.1507,-0.1543,-0.1585,-0.1587,-0.1622,-0.1621,-0.1551,-0.1492,0,0,0,-0.1263,-0.1304,-0.1296,-0.132,-0.1351,-0.1448,-0.1442,-0.1497,-0.1517,-0.1583,-0.1588,-0.1623,-0.1622,-0.1554,-0.1498,-0.1451,0,0,0,-0.129,-0.1262,-0.1297,-0.1295,-0.1349,-0.1367,-0.1442,-0.1502,-0.1554,-0.1585,-0.1622,-0.1621,-0.1555,-0.1502,-0.1454,-0.1364,-0.134,0,0,-0.1257,-0.126,-0.1257,-0.1288,-0.1278,-0.1355,-0.1372,-0.1481,-0.154,-0.159,-0.1591,-0.155,-0.1498,-0.1452,-0.1295,-0.1273,0,0,0,-0.1249,-0.1227,-0.1242,-0.1249,-0.1282,-0.1314,-0.1402,-0.1438,-0.1502,-0.1559,-0.1546,-0.1515,-0.1488,-0.1442,-0.1424,-0.1384,-0.1616,-0.1616,-0.1616,-0.1151,-0.1173,-0.1154,-0.1171,-0.1203,-0.1285,-0.132,-0.1377,-0.1449,-0.1455,-0.1454,-0.1361,-0.1311,-0.1296,-0.1257,-0.1467,-0.1466,-0.1466,-0.1466,-0.1057,-0.1021,-0.1071,-0.1058,-0.1098,-0.1117,-0.1215,-0.1275,-0.1298,-0.1368,-0.1347,-0.1364,-0.1272,-0.1237,-0.1461,-0.1462,-0.1462,-0.1463,-0.1463,-0.0964,-0.0941,-0.0956,-0.0941,-0.0937,-0.1015,-0.102,-0.1123,-0.1207,-0.1201,-0.1168,-0.1169,-0.114,-0.12,-0.12,-0.1199,-0.1199,-0.1199,-0.1198,-0.0845,-0.0856,-0.0822,-0.0814,-0.0798,-0.0801,-0.0898,-0.0936,-0.1004,-0.1055,-0.1055,-0.1085,-0.128,-0.1292,-0.1191,-0.1192,-0.1193,-0.1194,-0.1194,-0.0717,-0.0737,-0.0693,-0.0671,-0.0626,-0.0526,-0.0639,-0.0687,-0.0757,-0.0764,-0.084,-0.0987,-0.0997,-0.1012,-0.1017,-0.0851,-0.0851,-0.0851,-0.0851,-0.063,-0.0632,-0.0586,-0.0547,-0.0466,-0.0416,-0.0264,-0.0311,-0.0501,-0.0553,-0.0678,-0.0718,-0.0734,-0.0734,-0.0755,-0.0757,-0.0528,-0.0528,-0.0528,-0.0564,-0.0564,-0.0511,-0.0488,-0.0399,-0.0258,-0.0019,0.0108,-0.0214,-0.0516,-0.0635,-0.0649,-0.0717,-0.0745,-0.076,-0.0792,-0.0804,0,0]}],[{"header":{"parameterUnit":"m.s-1","parameterCategory":2,"la1":30.2992,"la2":30.254,"lo1":-89.0895,"lo2":-89.0443,"dy":0.0025,"dx":0.0025,"nx":19,"ny":19,"refTime":"2026-05-10T21:00:00:Z","depth":"2","parameterNumber":2,"parameterNumberName":"U-component_of_CURRENTS"},"data":[0,0,0,0.1274,0.1275,0.1333,0.1333,0.1335,0.1335,0,0,0,0,0,0,0,0,0,0,0,0.1262,0.1262,0.1274,0.1275,0.1333,0.1333,0.1335,0.1335,0,0,0,0,0,0,0,0,0,0,0,0.1261,0.1262,0.1263,0.1276,0.1333,0.1333,0.1335,0.1311,0,0,0,0,0,0,0,0,0,0,0.1264,0.1221,0.1262,0.1263,0.1276,0.1333,0.1333,0.131,0.1312,0.1287,0,0.1303,0,0.1312,0.1333,0.1333,0,0,0,0.1279,0.1219,0.1273,0.1263,0.1276,0.1333,0.1308,0.1312,0.1314,0.1289,0.1303,0.1304,0.1312,0.1333,0.1333,0.137,0.137,0,0,0.1276,0.1232,0.1272,0.1275,0.1298,0.1306,0.131,0.1314,0.1294,0.1303,0.1304,0.1312,0.1333,0.1333,0.1369,0.137,0,0,0,0.1264,0.1229,0.1284,0.1274,0.1287,0.1308,0.1312,0.1293,0.1323,0.1304,0.1312,0.1333,0.1332,0.1368,0.1369,0.1453,0,0,0,0.1263,0.1223,0.1282,0.1251,0.1288,0.1289,0.1291,0.1323,0.1324,0.1312,0.1333,0.1332,0.1368,0.1369,0.145,0.1439,0,0,0,0.1258,0.122,0.124,0.1249,0.1277,0.1291,0.1319,0.1324,0.1328,0.1333,0.1332,0.1367,0.1369,0.1446,0.1435,0.1501,0,0,0,0.1195,0.123,0.1238,0.126,0.1276,0.1328,0.132,0.131,0.1309,0.1332,0.1368,0.1369,0.1445,0.1432,0.1498,0.152,0.1537,0,0,0.1217,0.123,0.1247,0.1258,0.1291,0.1319,0.138,0.1357,0.1332,0.136,0.1362,0.1451,0.1434,0.15,0.1604,0.1618,0,0,0,0.1239,0.1261,0.1253,0.1286,0.1314,0.1352,0.1376,0.1397,0.1426,0.1341,0.1457,0.1443,0.1482,0.149,0.1501,0.1376,0.1376,0.1376,0.1376,0.1239,0.1278,0.1284,0.133,0.1358,0.1401,0.1429,0.1477,0.1468,0.1496,0.1519,0.1626,0.1637,0.1645,0.155,0.1551,0.1551,0.1551,0.1552,0.1248,0.126,0.1308,0.1332,0.1394,0.1471,0.1535,0.1549,0.1636,0.1603,0.1641,0.1585,0.1662,0.1558,0.1557,0.1556,0.1555,0.1555,0.1555,0.1212,0.123,0.1242,0.1317,0.1398,0.1482,0.1572,0.1628,0.1669,0.1708,0.1744,0.1742,0.1662,0.1766,0.1766,0.1766,0.1766,0.1767,0.1767,0.1163,0.1181,0.1223,0.1302,0.1347,0.146,0.1586,0.1655,0.1769,0.1803,0.1804,0.1697,0.169,0.1673,0.1771,0.177,0.177,0.1769,0.1769,0.111,0.1159,0.1186,0.1227,0.1335,0.1416,0.1557,0.1746,0.1837,0.1906,0.1864,0.186,0.1828,0.1818,0.1803,0.1929,0.1929,0.1929,0.1929,0.1079,0.1123,0.1132,0.1168,0.1258,0.1374,0.1518,0.1637,0.1775,0.1736,0.1743,0.1689,0.169,0.1643,0.1637,0.1616,0.1693,0.1692,0.1691,0.1028,0.1063,0.1041,0.1125,0.1193,0.1332,0.1436,0.1437,0.1426,0.1669,0.1572,0.1938,0.188,0.1872,0.1813,0.1799,0.1769,0,0]},{"header":{"parameterUnit":"m.s-1","parameterCategory":2,"la1":30.2992,"la2":30.254,"lo1":-89.0895,"lo2":-89.0443,"dy":0.0025,"dx":0.0025,"nx":19,"ny":19,"refTime":"2026-05-10T21:00:00:Z","depth":"2","parameterNumber":3,"parameterNumberName":"V-component_of_CURRENTS"},"data":[0,0,0,-0.0137,-0.0137,-0.0056,-0.0055,0.0069,0.007,0,0,0,0,0,0,0,0,0,0,0,-0.0202,-0.0203,-0.0137,-0.0136,-0.0056,-0.0055,0.0069,0.007,0,0,0,0,0,0,0,0,0,0,0,-0.0201,-0.0202,-0.0204,-0.0136,-0.0056,-0.0055,0.0069,0.0009,0,0,0,0,0,0,0,0,0,0,-0.007,-0.0014,-0.0202,-0.0204,-0.0136,-0.0056,-0.0055,0.0006,0.0013,0.0031,0,-0.0005,0,0.004,0.0077,0.0077,0,0,0,-0.0111,-0.0019,-0.0125,-0.0204,-0.0136,-0.0056,-0.0085,0.001,0.0017,0.004,-0.0003,0.0003,0.0042,0.0077,0.0078,0.0093,0.0092,0,0,-0.0116,-0.0048,-0.0131,-0.0123,-0.0177,-0.0088,-0.0083,0.0014,0.0072,-0.0002,0.0007,0.0044,0.0078,0.0079,0.0093,0.0092,0,0,0,-0.0145,-0.005,-0.0155,-0.0129,-0.0113,-0.0086,-0.008,0.007,-0.0005,0.0008,0.0045,0.0078,0.008,0.0094,0.0093,0.0071,0,0,0,-0.0147,-0.0072,-0.0159,-0.0097,-0.0117,0.0012,-0.0026,-0.0012,0.0002,0.0045,0.0078,0.0081,0.0094,0.0093,0.0073,0.0048,0,0,0,-0.0194,-0.0069,-0.0113,-0.0098,-0.0085,0.0008,-0.005,-0.0008,0.0024,0.0077,0.0081,0.0095,0.0093,0.0074,0.0052,0.0041,0,0,0,-0.0058,-0.0077,-0.011,-0.0079,-0.0087,-0.0094,-0.005,0.0038,0.0087,0.0079,0.0094,0.0093,0.0075,0.0054,0.0043,0.0295,0.0307,0,0,-0.002,-0.0067,-0.0058,-0.009,-0.0059,-0.01,-0.0049,0.0047,0.0063,0.007,0.0071,0.0072,0.0052,0.0041,0.0217,0.0233,0,0,0,-0.0003,-0.0035,0.0009,-0.0008,-0.0022,0.0043,0.0017,-0.0002,0.002,0.0077,0.0051,0.0038,0.0033,0.0188,0.0199,0.0087,0.0087,0.0087,0.0087,-0.0005,-0.0033,0.0023,-0.0009,0.002,0.0071,0.0087,0.0025,0.0003,-0.0018,0.0005,-0.0042,0.0123,0.0134,-0.0005,-0.0005,-0.0005,-0.0005,-0.0005,0.0028,0.0032,0.0022,0.0053,0.0054,0.002,0.005,0.0036,-0.0083,-0.008,-0.0082,0.0138,0.0146,-0.0007,-0.0007,-0.0007,-0.0006,-0.0006,-0.0006,0.0007,0.0026,0.0033,0.0059,0.0057,0.0063,0.007,0.0019,-0.0079,-0.0104,0.0078,0.0082,-0.0044,-0.01,-0.01,-0.0101,-0.0101,-0.0101,-0.0101,0.0026,0.0067,0.0037,0.0086,0.0065,0.0032,0.0064,0.0019,0.0072,0.0059,0.0062,-0.0074,-0.0071,-0.0051,-0.0104,-0.0103,-0.0103,-0.0102,-0.0102,0.011,0.0065,0.0138,0.0115,0.0119,0.0191,0.0181,0.0283,0.0234,0.0287,0.017,0.0165,0.0197,0.0192,0.0219,0.0238,0.0238,0.0238,0.0238,0.0137,0.0102,0.0234,0.0293,0.0285,0.0327,0.0481,0.0559,0.0525,0.0523,0.051,0.06,0.0583,0.0638,0.0623,0.0659,0.0792,0.0792,0.0793,0.0249,0.0279,0.0372,0.039,0.0424,0.0483,0.0691,0.0773,0.077,0.0804,0.0493,0.0297,0.04,0.0383,0.0445,0.043,0.0478,0,0]}],[{"header":{"parameterUnit":"m.s-1","parameterCategory":2,"la1":30.2992,"la2":30.254,"lo1":-89.0895,"lo2":-89.0443,"dy":0.0025,"dx":0.0025,"nx":19,"ny":19,"refTime":"2026-05-10T21:00:00:Z","depth":"4","parameterNumber":2,"parameterNumberName":"U-component_of_CURRENTS"},"data":[0,0,0,0.0502,0.0508,0.0663,0.0662,0.0506,0.0505,0,0,0,0,0,0,0,0,0,0,0,0.0408,0.041,0.0502,0.0508,0.0663,0.0662,0.0506,0.0505,0,0,0,0,0,0,0,0,0,0,0,0.0407,0.041,0.0412,0.0509,0.0663,0.0662,0.0507,0.0461,0,0,0,0,0,0,0,0,0,0,0.0347,0.0365,0.0409,0.0412,0.0511,0.0663,0.0662,0.0462,0.0463,0.0358,0,0.0418,0,0.0501,0.0493,0.0492,0,0,0,0.0436,0.0365,0.04,0.0412,0.0513,0.0663,0.0573,0.0465,0.0466,0.0359,0.0417,0.0415,0.0498,0.0492,0.0491,0.0385,0.0386,0,0,0.0428,0.0424,0.04,0.0403,0.0593,0.0568,0.0579,0.0469,0.0482,0.0417,0.0414,0.0495,0.049,0.0489,0.0385,0.0385,0,0,0,0.0452,0.0419,0.0462,0.0405,0.0487,0.0575,0.0586,0.0486,0.0502,0.0413,0.0494,0.0489,0.0487,0.0385,0.0385,0.051,0,0,0,0.0443,0.0439,0.0459,0.0457,0.0493,0.0549,0.0605,0.0507,0.0501,0.0494,0.0489,0.0485,0.0385,0.0385,0.0506,0.0568,0,0,0,0.0394,0.0435,0.0464,0.0457,0.0562,0.0554,0.0562,0.0508,0.0551,0.0492,0.0485,0.0385,0.0385,0.0503,0.0562,0.0646,0,0,0,0.0364,0.0425,0.0464,0.0561,0.0562,0.0621,0.0564,0.0575,0.0531,0.0488,0.0385,0.0385,0.0502,0.0558,0.0641,0.0426,0,0,0,0.0413,0.0432,0.0487,0.0527,0.0622,0.0592,0.0634,0.0554,0.0494,0.0382,0.0382,0.0508,0.0561,0.0645,0.045,0,0,0,0,0.0483,0.0521,0.0555,0.064,0.0675,0.0681,0.0633,0.0602,0.0545,0.0493,0.0481,0.051,0.056,0.0418,0.0387,0.0387,0.0387,0.0387,0.0387,0.0503,0.0554,0.0635,0.0686,0.071,0.0717,0.0707,0.0643,0.0574,0.0576,0.0592,0.0713,0.0563,0.0562,0.0563,0.0564,0.0564,0.0564,0.0565,0.058,0.0621,0.0682,0.0772,0.0775,0.0782,0.0754,0.0735,0.0749,0.0669,0.0711,0.0532,0.0576,0.0574,0.0572,0.0571,0.057,0.0569,0.0569,0.0568,0.0587,0.0689,0.0806,0.0845,0.0843,0.0875,0.0894,0.0864,0.091,0.0766,0.0802,0.0817,0.095,0.0951,0.0952,0.0952,0.0953,0.0953,0.0506,0.0605,0.0701,0.082,0.087,0.0921,0.0978,0.0954,0.0966,0.0887,0.0969,0.0843,0.083,0.0837,0.0963,0.0962,0.096,0.0959,0.0959,0.0486,0.0547,0.0675,0.0761,0.0877,0.0872,0.0999,0.0924,0.0935,0.0856,0.0859,0.0861,0.0802,0.0791,0.0794,0.0913,0.091,0.0908,0,0.0448,0.049,0.0659,0.076,0.0779,0.083,0.0764,0.0744,0.0746,0.0759,0.0864,0.0869,0.0868,0.0796,0.0783,0.0782,0,0,0,0.046,0.0495,0.0583,0.0696,0.0705,0.0656,0.0714,0.0664,0.0843,0.0672,0.0852,0.0867,0.0762,0.0993,0.0908,0.0893,0.09,0,0]},{"header":{"parameterUnit":"m.s-1","parameterCategory":2,"la1":30.2992,"la2":30.254,"lo1":-89.0895,"lo2":-89.0443,"dy":0.0025,"dx":0.0025,"nx":19,"ny":19,"refTime":"2026-05-10T21:00:00:Z","depth":"4","parameterNumber":3,"parameterNumberName":"V-component_of_CURRENTS"},"data":[0,0,0,0.049,0.0492,0.0539,0.0538,0.0397,0.0395,0,0,0,0,0,0,0,0,0,0,0,0.0459,0.046,0.049,0.0493,0.0539,0.0538,0.0397,0.0395,0,0,0,0,0,0,0,0,0,0,0,0.0459,0.046,0.0461,0.0493,0.0539,0.0538,0.0397,0.0402,0,0,0,0,0,0,0,0,0,0,0.0378,0.0419,0.046,0.0461,0.0494,0.0539,0.0538,0.0404,0.0402,0.0332,0,0.0365,0,0.0398,0.0385,0.0385,0,0,0,0.0451,0.0421,0.0419,0.0461,0.0495,0.0539,0.0506,0.0404,0.0401,0.0328,0.0364,0.036,0.0395,0.0384,0.0383,0.0263,0.0262,0,0,0.0449,0.0469,0.0422,0.0419,0.0536,0.0505,0.0508,0.0404,0.0417,0.0363,0.0358,0.0393,0.0383,0.0382,0.0263,0.0263,0,0,0,0.0469,0.0467,0.0471,0.0423,0.0459,0.0507,0.0511,0.0422,0.0421,0.0357,0.0391,0.0382,0.038,0.0263,0.0263,0.0328,0,0,0,0.0466,0.0482,0.0471,0.0483,0.0464,0.0477,0.0531,0.0427,0.0418,0.0392,0.0382,0.0379,0.0263,0.0263,0.0327,0.0352,0,0,0,0.0452,0.0481,0.0493,0.0484,0.0524,0.048,0.0473,0.0426,0.0439,0.0385,0.0379,0.0263,0.0263,0.0326,0.0349,0.0354,0,0,0,0.0458,0.0484,0.0494,0.0523,0.0524,0.0493,0.0475,0.045,0.0407,0.0382,0.0263,0.0263,0.0325,0.0348,0.0353,0.0296,0,0,0,0.0482,0.0489,0.0496,0.0506,0.0491,0.0482,0.0445,0.0396,0.0372,0.0276,0.0274,0.0327,0.0349,0.0354,0.027,0,0,0,0,0.0496,0.0507,0.0497,0.0509,0.0479,0.0446,0.0413,0.0391,0.0355,0.0357,0.03,0.0311,0.0313,0.0273,0.0261,0.0261,0.0261,0.0261,0.0261,0.0533,0.0516,0.0514,0.0485,0.0461,0.0415,0.0379,0.0342,0.0328,0.0335,0.0345,0.0365,0.0325,0.0322,0.0322,0.0323,0.0323,0.0323,0.0323,0.0545,0.0534,0.0521,0.0527,0.0478,0.0453,0.0371,0.0372,0.0353,0.0354,0.0353,0.032,0.0329,0.0328,0.0327,0.0326,0.0326,0.0326,0.0325,0.0533,0.0527,0.0572,0.0589,0.0572,0.0521,0.0493,0.047,0.0422,0.0422,0.0387,0.0396,0.0412,0.0452,0.0452,0.0452,0.0452,0.0453,0.0453,0.0515,0.0547,0.061,0.0642,0.0664,0.0668,0.0607,0.0534,0.0477,0.0442,0.0468,0.0408,0.0404,0.0417,0.0455,0.0454,0.0454,0.0454,0.0454,0.0482,0.0564,0.0623,0.0681,0.0726,0.0692,0.0692,0.053,0.0468,0.0366,0.0422,0.0423,0.0388,0.0384,0.0396,0.0429,0.0429,0.0428,0,0.0483,0.0515,0.0634,0.0696,0.0696,0.0681,0.058,0.0476,0.0371,0.042,0.0388,0.0457,0.0456,0.0419,0.0414,0.0429,0,0,0,0.0481,0.051,0.0575,0.0662,0.0656,0.0551,0.053,0.047,0.0496,0.0298,0.0413,0.0417,0.0315,0.0461,0.041,0.0405,0.0424,0,0]}]]